Weather reports worldwide

Advertisment
Harzgerode, Germany (10458): temperature & dewpoint: 06.11.2019 17:00:00 - 12.11.2019 17:00:00 (CET)Harzgerode, Germany (10458): temperature 5cm & temperature -5cm: 06.11.2019 17:00:00 - 12.11.2019 17:00:00 (CET)Harzgerode, Germany (10458): temperature -20cm & temperature -100cm: 06.11.2019 17:00:00 - 12.11.2019 17:00:00 (CET)Harzgerode, Germany (10458): wind speed & gusts: 06.11.2019 17:00:00 - 12.11.2019 17:00:00 (CET)Harzgerode, Germany (10458): wind direction: 06.11.2019 17:00:00 - 12.11.2019 17:00:00 (CET)Harzgerode, Germany (10458): reduced air pressure: 06.11.2019 17:00:00 - 12.11.2019 17:00:00 (CET)Harzgerode, Germany (10458): visibility: 06.11.2019 17:00:00 - 12.11.2019 17:00:00 (CET)Harzgerode, Germany (10458): sunshine duration: 06.11.2019 17:00:00 - 12.11.2019 17:00:00 (CET)Harzgerode, Germany (10458): precipitation: 06.11.2019 17:00:00 - 12.11.2019 17:00:00 (CET)
Date & Time tt [°C] td [°C] tt 5cm [°C] tt -5cm [°C] tt -20cm [°C] tt -100cm [°C] ff [km/h] ff [kn] fx [km/h] fx [kn] dd ppp [hPa] vv [km] sd [min] rr [mm]
12.11.2019 17:00:00 4,1 0,3 2,9 3,4 2,6 9,2 15 8 31 17 S 1004,5 44 0 0,0
12.11.2019 16:00:00 5,1 -0,1 4,3 4,1 2,5 9,2 19 10 38 20 SSW 1004,0 50 1 0,0
12.11.2019 15:00:00 5,5 -0,1 5,2 4,9 2,4 9,2 23 12 39 21 SSW 1004,4 46 9 0,0
12.11.2019 14:00:00 6,0 0,5 6,6 5,6 2,2 9,2 18 10 39 21 SSW 1003,9 61 31 0,0
12.11.2019 13:00:00 5,7 0,7 6,7 5,3 2,0 9,2 28 15 46 25 SW 1004,5 46 38 0,0
12.11.2019 12:00:00 4,6 0,7 5,0 4,2 1,9 9,2 21 12 36 19 SSW 1005,1 48 0 0,0
12.11.2019 11:00:00 4,2 0,9 4,5 3,7 1,8 9,3 20 11 37 20 SSW 1005,9 49 5 0,0
12.11.2019 10:00:00 3,8 0,5 3,8 2,9 1,8 9,3 22 12 37 20 SW 1006,0 47 3 0,0
12.11.2019 09:00:00 3,3 0,6 3,4 2,1 1,8 9,3 22 12 38 20 SW 1005,9 38 4 0,0
12.11.2019 08:00:00 2,3 0,6 1,4 1,7 1,8 9,3 23 12 36 19 SW 1006,1 27 0 0,0
12.11.2019 07:00:00 2,2 0,6 2,0 2,0 1,8 9,3 19 10 34 18 SW 1006,0 23 0 0,0
12.11.2019 06:00:00 2,1 0,7 2,0 2,0 1,8 9,3 18 10 33 18 SW 1005,7 18 0 0,0
12.11.2019 05:00:00 2,0 0,5 1,8 1,9 1,8 9,3 20 11 30 16 SW 1005,6 14 0 0,0
12.11.2019 04:00:00 1,9 0,0 1,7 1,7 1,8 9,3 16 9 30 16 SW 1005,6 14 0 0,0
12.11.2019 03:00:00 1,8 -0,3 1,4 1,5 1,9 9,3 20 11 34 19 SW 1005,1 14 0 0,0
12.11.2019 02:00:00 1,7 -0,5 1,4 1,5 1,9 9,4 22 12 33 18 SSW 1005,4 15 0 0,0
12.11.2019 01:00:00 1,4 -0,6 1,0 1,2 2,0 9,4 19 11 31 17 SSW 1005,4 15 0 0,0
12.11.2019 00:00:00 1,4 -0,9 0,7 1,3 2,1 9,4 16 8 26 14 SW 1005,6 17 0 0,0
11.11.2019 23:00:00 1,5 -1,0 0,9 1,5 2,1 9,4 18 10 32 18 SW 1005,9 19 0 0,0
11.11.2019 22:00:00 1,8 -1,2 1,2 1,5 2,2 9,4 17 9 29 15 SW 1006,2 24 0 0,0
11.11.2019 21:00:00 0,9 -1,0 0,6 1,6 2,3 9,4 16 9 24 13 SW 1006,4 23 0 0,0
11.11.2019 20:00:00 1,1 -0,7 0,7 1,7 2,4 9,4 19 10 31 17 SSW 1006,6 23 0 0,0
11.11.2019 19:00:00 0,9 -0,3 0,4 1,7 2,5 9,4 14 8 25 13 SSW 1007,1 21 0 0,0
11.11.2019 18:00:00 0,8 -0,5 0,2 1,9 2,6 9,5 10 6 18 10 SW 1007,2 19 0 0,0
11.11.2019 17:00:00 1,2 -0,4 -0,1 2,5 2,6 9,5 10 5 27 14 SSW 1007,4 21 0 0,0
11.11.2019 16:00:00 1,9 -0,6 1,1 3,8 2,5 9,5 15 8 24 13 SW 1008,1 28 39 0,0
11.11.2019 15:00:00 2,6 -0,7 3,5 5,2 2,4 9,5 18 10 31 17 SSW 1008,5 40 55 0,0
11.11.2019 14:00:00 3,3 -0,4 4,6 5,8 2,2 9,5 18 10 29 16 SSW 1009,0 35 53 0,0
11.11.2019 13:00:00 3,2 0,3 5,1 5,4 2,0 9,5 20 11 29 16 SW 1009,8 30 50 0,0
11.11.2019 12:00:00 1,4 -0,7 2,1 3,7 1,9 9,5 18 10 35 19 SSW 1010,9 24 26 0,0
11.11.2019 11:00:00 0,8 -0,3 1,3 2,5 1,9 9,5 21 11 34 18 SSW 1012,1 13 2 0,0
11.11.2019 10:00:00 0,2 -0,9 0,1 2,0 1,9 9,5 17 9 26 14 SW 1012,8 13 2 0,0
11.11.2019 09:00:00 0,2 -0,1 0,3 1,4 1,9 9,5 16 9 30 16 SW 1013,5 6 0 0,0
11.11.2019 08:00:00 0,4 -0,1 0,2 1,1 2,0 9,6 19 10 28 15 SW 1013,8 9 0 0,0
11.11.2019 07:00:00 0,0 -0,5 -0,8 1,0 2,0 9,6 14 8 31 17 SW 1014,3 11 0 0,0
11.11.2019 06:00:00 0,5 -0,1 0,2 1,4 2,0 9,6 22 12 30 16 SW 1014,7 15 0 0,0
11.11.2019 05:00:00 0,4 0,1 0,3 1,4 2,1 9,6 18 10 30 16 WSW 1014,8 8 0 0,0
11.11.2019 04:00:00 0,2 0,0 0,2 1,3 2,1 9,6 15 8 25 13 WSW 1015,3 7 0 0,0
11.11.2019 03:00:00 0,2 0,1 0,0 1,2 2,2 9,6 15 8 24 13 WSW 1015,6 4,2 0 0,0
11.11.2019 02:00:00 1,2 1,0 0,8 1,1 2,3 9,6 15 8 19 11 SW 1015,7 4,5 0 0,0
11.11.2019 01:00:00 0,7 0,4 0,0 1,1 2,4 9,6 9 5 14 8 WSW 1015,9 5 0 0,0
11.11.2019 00:00:00 -1,2 -1,5 -1,5 1,0 2,6 9,6 8 4 14 8 WSW 1016,7 7 0 0,0
10.11.2019 23:00:00 -1,3 -1,5 -2,3 1,1 2,7 9,7 9 5 13 7 WSW 1016,7 7 0 0,0
10.11.2019 22:00:00 -1,6 -1,8 -2,6 1,1 2,9 9,7 8 4 11 6 WSW 1017,1 6 0 0,0
10.11.2019 21:00:00 -1,5 -1,7 -2,6 1,3 3,1 9,7 8 5 12 7 WSW 1017,0 10 0 0,0
10.11.2019 20:00:00 0,4 0,1 -0,8 1,9 3,2 9,7 10 5 15 8 WSW 1016,6 17 0 0,0
10.11.2019 19:00:00 0,2 -0,2 -1,1 2,3 3,4 9,7 9 5 11 6 WSW 1016,8 26 0 0,0
10.11.2019 18:00:00 2,7 1,2 0,3 3,2 3,4 9,7 9 5 14 7 WSW 1016,0 41 0 0,0
10.11.2019 17:00:00 3,7 0,7 0,9 4,4 3,4 9,7 5 3 15 8 WNW 1015,4 46 0 0,0
10.11.2019 16:00:00 6,0 0,6 5,1 6,5 3,2 9,7 11 6 18 10 WSW 1014,3 52 58 0,0
10.11.2019 15:00:00 7,2 1,2 8,0 7,3 2,9 9,7 16 8 22 12 WSW 1013,7 59 35 0,0
10.11.2019 14:00:00 7,0 0,8 7,3 7,7 2,5 9,8 10 5 18 10 WSW 1013,4 46 43 0,0
10.11.2019 13:00:00 7,1 1,3 8,6 7,5 2,2 9,8 10 6 16 9 SW 1013,2 62 59 0,0
10.11.2019 12:00:00 6,0 2,1 7,5 5,4 2,1 9,8 10 6 15 8 WSW 1013,2 57 60 0,0
10.11.2019 11:00:00 4,1 1,7 4,4 1,2 2,2 9,8 7 4 11 6 SW 1013,6 38 60 0,0
10.11.2019 10:00:00 0,7 0,1 0,2 0,8 2,3 9,8 9 5 13 7 WSW 1014,0 7 52 0,0
10.11.2019 09:00:00 -1,3 -1,7 -1,9 0,8 2,4 9,8 6 3 8 4 WSW 1013,9 9 0 0,0
10.11.2019 08:00:00 -1,4 -1,5 -1,7 0,8 2,5 9,8 4 2 7 4 SSE 1013,7 11 0 0,0
10.11.2019 07:00:00 -1,5 -1,7 -2,3 0,8 2,6 9,8 4 2 10 5 ESE 1013,2 7 0 0,0
10.11.2019 06:00:00 -2,9 -3,1 -3,7 0,8 2,7 9,8 7 4 13 7 SW 1012,9 11 0 0,0
10.11.2019 05:00:00 -2,0 -2,1 -4,0 0,9 2,8 9,8 4 2 14 7 WNW 1012,2 0,4 0 0,0
10.11.2019 04:00:00 -1,7 -1,9 -2,4 1,0 2,9 9,8 11 6 16 9 WSW 1011,6 5 0 0,0
10.11.2019 03:00:00 -2,3 -2,5 -3,1 1,1 3,1 9,8 14 7 16 9 WSW 1011,7 7 0 0,0
10.11.2019 02:00:00 -0,6 -0,6 -3,2 1,1 3,3 9,8 2 1 8 5 W 1011,2 0,3 0 0,0
10.11.2019 01:00:00 -0,3 -0,3 -2,7 1,2 3,5 9,8 4 2 9 5 SE 1011,2 2,6 0 0,0
10.11.2019 00:00:00 -0,4 -0,9 -1,8 1,5 3,7 9,8 5 3 15 8 WSW 1011,0 6 0 0,0
09.11.2019 23:00:00 0,4 0,1 -0,1 1,8 3,9 9,8 4 2 18 10 SSW 1010,5 9 0 0,0
09.11.2019 22:00:00 2,1 1,2 0,5 2,2 4,0 9,8 10 5 18 10 SSW 1010,2 22 0 0,0
09.11.2019 21:00:00 1,5 1,3 -0,1 2,6 4,2 9,8 8 5 15 8 SW 1010,1 10 0 0,0
09.11.2019 20:00:00 2,3 1,6 -0,5 3,2 4,4 9,8 7 4 12 7 SW 1009,8 14 0 0,0
09.11.2019 19:00:00 3,3 2,4 1,2 4,0 4,5 9,9 6 4 18 10 SSW 1009,5 15 0 0,0
09.11.2019 18:00:00 4,1 2,8 3,3 4,8 4,5 9,9 10 6 21 11 SW 1009,4 9 0 0,0
09.11.2019 17:00:00 4,7 2,2 4,3 5,3 4,5 9,9 9 5 19 11 SW 1009,2 23 0 0,0
09.11.2019 16:00:00 5,3 2,4 4,9 5,9 4,5 9,9 14 7 23 12 SW 1008,8 30 12 0,0
09.11.2019 15:00:00 5,3 2,3 5,2 6,1 4,5 9,9 12 6 26 14 WSW 1008,6 28 0 0,0
09.11.2019 14:00:00 5,5 1,5 5,6 6,4 4,4 9,9 17 9 27 14 WSW 1008,3 34 0 0,0
09.11.2019 13:00:00 5,4 2,5 5,5 6,3 4,3 9,9 11 6 26 14 W 1008,0 61 1 0,0
09.11.2019 12:00:00 5,1 2,7 5,7 6,4 4,2 9,9 13 7 21 11 WSW 1008,1 59 0 0,0
09.11.2019 11:00:00 4,8 2,1 5,4 6,3 4,1 9,9 10 5 16 9 WNW 1008,4 75 3 0,0
09.11.2019 10:00:00 4,3 3,0 4,9 5,1 4,1 9,9 10 5 17 9 NW 1008,4 63 0 0,0
09.11.2019 09:00:00 3,8 2,7 3,9 4,6 4,2 9,9 11 6 17 9 NW 1008,2 61 0 0,0
09.11.2019 08:00:00 3,8 2,9 3,4 4,4 4,2 9,9 10 5 26 14 WNW 1007,9 55 0 0,0
09.11.2019 07:00:00 3,6 2,8 3,3 4,5 4,3 9,9 16 8 26 14 NNW 1007,4 39 0 0,0
09.11.2019 06:00:00 3,7 3,0 3,5 4,6 4,3 9,9 17 9 27 15 NNW 1007,5 30 0 0,0
09.11.2019 05:00:00 3,8 3,1 3,6 4,7 4,4 9,9 13 7 23 12 NW 1006,9 9 0 0,0
09.11.2019 04:00:00 4,0 2,8 3,6 4,8 4,4 9,9 11 6 18 10 NW 1006,7 42 0 0,0
09.11.2019 03:00:00 4,0 3,4 3,7 4,9 4,5 9,9 13 7 21 11 NNW 1006,9 11 0 0,0
09.11.2019 02:00:00 4,2 3,7 4,0 5,1 4,5 9,9 12 7 23 13 NNW 1007,1 15 0 0,0
09.11.2019 01:00:00 4,3 3,8 4,1 5,2 4,5 9,9 13 7 24 13 NNW 1007,0 16 0 0,0
09.11.2019 00:00:00 4,5 3,9 4,2 5,2 4,6 10,0 17 9 33 18 N 1006,9 19 0 0,0
08.11.2019 23:00:00 4,5 4,1 4,4 5,3 4,6 10,0 16 9 31 17 N 1006,9 10 0 0,0
08.11.2019 22:00:00 4,5 4,4 4,5 5,4 4,6 10,0 14 8 23 12 N 1007,1 6 0 0,0
08.11.2019 21:00:00 4,5 4,4 4,5 5,4 4,7 10,0 13 7 26 14 N 1007,2 4,5 0 0,0
08.11.2019 20:00:00 4,6 4,4 4,5 5,5 4,7 10,0 15 8 26 14 N 1006,7 10 0 0,3
08.11.2019 19:00:00 4,8 4,6 4,7 5,6 4,7 10,0 15 8 29 15 NNE 1006,6 6 0 0,7
08.11.2019 18:00:00 4,9 4,5 4,7 5,8 4,7 10,0 13 7 24 13 NNE 1006,9 11 0 1,3
08.11.2019 17:00:00 5,0 4,8 4,9 6,0 4,7 10,0 10 6 18 10 NNE 1006,7 4,4 0 1,4
08.11.2019 16:00:00 5,2 4,9 5,2 6,2 4,7 10,0 8 4 14 8 NNW 1006,9 5 0 0,8
08.11.2019 15:00:00 5,5 4,3 5,2 6,6 4,6 10,0 11 6 16 9 NNE 1006,8 13 0 0,2
08.11.2019 14:00:00 6,3 3,6 6,3 6,8 4,5 10,0 5 3 15 8 N 1006,8 51 0 0,0
08.11.2019 13:00:00 6,5 3,5 6,7 7,0 4,3 10,0 11 6 18 10 ENE 1007,0 63 0 0,0
08.11.2019 12:00:00 6,5 3,6 7,0 6,8 4,2 10,0 7 4 11 6 N 1007,3 55 0 0,0
08.11.2019 11:00:00 5,6 3,7 5,4 5,8 4,2 10,0 4 2 9 5 WNW 1007,9 50 0 0,0
08.11.2019 10:00:00 4,0 3,5 4,3 4,7 4,2 10,0 3 2 8 5 SSW 1008,5 21 0 0,0
08.11.2019 09:00:00 2,3 2,1 2,3 3,8 4,3 10,0 5 3 9 5 WSW 1008,4 14 0 0,0
08.11.2019 08:00:00 2,5 2,5 0,9 3,5 4,4 10,0 4 2 9 5 W 1008,0 8 0 0,0
08.11.2019 07:00:00 2,4 2,4 1,8 3,5 4,5 10,0 3 2 12 6 WSW 1007,7 12 0 0,0
08.11.2019 06:00:00 2,1 2,0 1,4 3,5 4,7 10,0 6 3 13 7 SSW 1007,4 8 0 0,0
08.11.2019 05:00:00 3,6 3,3 2,3 3,7 4,9 10,0 9 5 14 7 SSW 1007,2 21 0 0,0
08.11.2019 04:00:00 3,4 3,4 -0,1 3,8 5,0 10,0 2 1 9 5 SW 1007,3 18 0 0,0
08.11.2019 03:00:00 3,9 3,3 1,3 4,5 5,1 10,0 6 3 12 6 W 1006,9 30 0 0,0
08.11.2019 02:00:00 5,3 4,0 4,3 5,0 5,3 10,0 12 7 18 10 SW 1006,6 39 0 0,0
08.11.2019 01:00:00 4,8 3,6 2,8 5,3 5,4 10,0 3 2 16 8 SW 1006,1 55 0 0,0
08.11.2019 00:00:00 6,1 4,0 4,9 5,8 5,4 10,0 10 5 21 11 SW 1005,2 63 0 0,0
07.11.2019 23:00:00 6,5 4,2 5,5 6,2 5,5 10,1 15 8 34 19 SW 1004,9 59 0 0,0
07.11.2019 22:00:00 7,2 4,6 6,8 6,6 5,6 10,1 14 8 29 16 SSW 1004,0 60 0 0,0
07.11.2019 21:00:00 7,5 4,4 7,0 6,7 5,6 10,1 16 9 32 18 SSW 1003,3 62 0 0,0
07.11.2019 20:00:00 7,6 4,4 7,2 6,8 5,7 10,1 16 8 36 20 S 1002,6 71 0 0,0
07.11.2019 19:00:00 7,5 4,5 7,2 6,9 5,7 10,1 19 10 31 17 S 1002,2 44 0 0,0
07.11.2019 18:00:00 7,5 4,5 7,0 7,2 5,7 10,1 16 9 31 17 S 1001,7 50 0 0,0
07.11.2019 17:00:00 7,8 4,7 7,0 7,6 5,7 10,1 15 8 27 15 S 1001,7 60 0 0,0
07.11.2019 16:00:00 8,5 4,7 7,9 8,2 5,7 10,1 14 7 34 19 S 1001,4 58 0 0,0
07.11.2019 15:00:00 9,0 5,0 8,8 9,3 5,5 10,1 19 10 36 19 S 1001,1 61 23 0,0
07.11.2019 14:00:00 9,3 5,1 9,4 9,7 5,3 10,1 18 10 32 17 S 1001,2 60 22 0,0
07.11.2019 13:00:00 9,6 7,0 11,3 9,1 5,1 10,1 13 7 25 13 S 1001,1 44 18 0,0
07.11.2019 12:00:00 8,3 6,3 8,5 8,6 5,0 10,1 18 10 26 14 S 1001,6 30 14 0,0
07.11.2019 11:00:00 7,6 6,3 7,7 7,9 4,9 10,1 14 7 23 12 SSW 1002,0 24 0 0,0
07.11.2019 10:00:00 7,1 6,1 6,8 7,1 4,9 10,1 14 8 21 11 SSW 1002,1 20 0 0,0
07.11.2019 09:00:00 6,5 6,0 6,2 6,3 4,9 10,1 9 5 16 9 SSW 1002,3 9 0 0,0
07.11.2019 08:00:00 6,1 5,8 5,7 6,0 4,9 10,1 9 5 16 9 SSW 1002,2 9 0 0,0
07.11.2019 07:00:00 6,1 5,9 5,7 6,0 4,9 10,1 11 6 16 9 SSW 1002,0 8 0 0,1
07.11.2019 06:00:00 6,1 6,0 5,9 6,2 4,9 10,1 9 5 14 7 SSW 1002,1 11 0 0,0
07.11.2019 05:00:00 5,7 5,5 5,6 6,1 4,9 10,1 7 4 9 5 SSW 1002,2 7 0 0,1
07.11.2019 04:00:00 5,8 5,6 5,6 6,1 4,9 10,1 3 2 9 5 SW 1002,6 4,1 0 0,0
07.11.2019 03:00:00 5,8 5,7 5,6 6,0 4,9 10,1 5 3 8 5 SW 1002,9 6 0 0,0
07.11.2019 02:00:00 5,3 5,3 5,2 5,8 4,9 10,2 4 2 6 3 E 1003,2 3,4 0 0,0
07.11.2019 01:00:00 5,6 5,5 4,9 5,9 4,9 10,2 5 3 11 6 SW 1003,3 7 0 0,0
07.11.2019 00:00:00 5,8 5,5 5,5 5,9 5,0 10,2 4 2 9 5 SSW 1003,6 9 0 0,0
06.11.2019 23:00:00 5,7 5,3 5,4 5,9 5,0 10,2 5 3 13 7 SW 1003,7 10 0 0,0
06.11.2019 22:00:00 5,6 5,2 5,2 5,8 5,1 10,2 7 4 16 9 SSW 1003,7 21 0 0,0
06.11.2019 21:00:00 5,6 4,9 4,9 5,8 5,1 10,2 12 6 16 9 SSW 1003,5 37 0 0,0
06.11.2019 20:00:00 5,5 5,1 5,0 6,1 5,2 10,2 8 4 12 7 SW 1003,3 37 0 0,1
06.11.2019 19:00:00 5,7 5,3 5,1 6,2 5,2 10,2 5 3 9 5 SW 1003,2 25 0 0,0
06.11.2019 18:00:00 5,8 5,4 5,2 6,4 5,2 10,2 5 3 10 5 WSW 1003,0 46 0 0,0
06.11.2019 17:00:00 6,1 5,7 4,9 7,0 5,1 10,2 3 2 8 4 E 1002,4 37 0 0,0

tt = temperature
td = dewpoint
tt 5cm = temperature 5cm
tt -5cm = temperature -5cm
tt -20cm = temperature -20cm
tt -100cm = temperature -100cm
ff = wind speed
fx = gusts
dd = wind direction
ppp = reduced air pressure
vv = visibility
sd = sunshine duration
rr = precipitation

Next stations